Time,TemperatureF,DewpointF,PressureIn,WindDirection,WindDirectionDegrees,WindSpeedMPH,WindSpeedGustMPH,Humidity,HourlyPrecipIn,Conditions,Clouds,dailyrainin,SoftwareType,DateUTC
2013-05-05 00:04:00,43.7,37.3,28.59,WNW,289,4.0,5.8,78,0.00,,---,0.00,VWS V14.01,2013-05-05 05:04:00,
2013-05-05 00:09:00,43.7,37.3,28.59,NW,317,2.7,6.3,78,0.00,,---,0.00,VWS V14.01,2013-05-05 05:09:00,
2013-05-05 00:14:00,43.7,37.3,28.59,NNW,331,0.0,6.3,78,0.00,,---,0.00,VWS V14.01,2013-05-05 05:14:00,
2013-05-05 00:19:00,43.7,37.6,28.59,NW,307,5.4,7.2,79,0.00,,---,0.00,VWS V14.01,2013-05-05 05:19:00,
2013-05-05 00:24:00,43.7,37.6,28.59,NW,322,2.7,7.2,79,0.00,,---,0.00,VWS V14.01,2013-05-05 05:24:00,
2013-05-05 00:29:00,43.7,37.6,28.59,WNW,302,3.1,7.2,79,0.00,,---,0.00,VWS V14.01,2013-05-05 05:29:00,
2013-05-05 00:34:00,43.7,37.6,28.59,NNW,333,4.5,7.2,79,0.00,,---,0.00,VWS V14.01,2013-05-05 05:34:00,
2013-05-05 00:39:00,43.7,37.6,28.59,NW,315,3.1,7.2,79,0.00,,---,0.00,VWS V14.01,2013-05-05 05:39:00,
2013-05-05 00:44:00,43.7,38.0,28.59,North,4,2.7,7.2,80,0.00,,---,0.00,VWS V14.01,2013-05-05 05:44:00,
2013-05-05 00:49:00,43.7,38.0,28.59,NNW,327,6.3,7.2,80,0.00,,---,0.00,VWS V14.01,2013-05-05 05:49:00,
2013-05-05 00:55:00,43.7,38.0,28.59,NW,320,2.2,7.2,80,0.00,,---,0.00,VWS V14.01,2013-05-05 05:55:00,
2013-05-05 01:00:00,43.7,38.3,28.59,NW,319,2.7,7.2,81,0.00,,---,0.00,VWS V14.01,2013-05-05 06:00:00,
2013-05-05 01:05:00,43.7,38.3,28.59,NW,315,2.7,6.7,81,0.00,,---,0.00,VWS V14.01,2013-05-05 06:05:00,
2013-05-05 01:10:00,43.5,38.4,28.59,NW,321,0.0,6.7,82,0.00,,---,0.00,VWS V14.01,2013-05-05 06:10:00,
2013-05-05 01:15:00,43.5,38.4,28.59,NNW,328,4.9,6.7,82,0.00,,---,0.00,VWS V14.01,2013-05-05 06:15:00,
2013-05-05 01:20:00,43.5,38.4,28.59,NW,319,4.9,6.7,82,0.00,,---,0.00,VWS V14.01,2013-05-05 06:20:00,
2013-05-05 01:25:00,43.5,38.4,28.59,NW,315,2.7,6.7,82,0.00,,---,0.00,VWS V14.01,2013-05-05 06:25:00,
2013-05-05 01:30:00,43.5,38.7,28.59,NNW,334,2.7,6.7,83,0.00,,---,0.00,VWS V14.01,2013-05-05 06:30:00,
2013-05-05 01:35:00,43.5,38.7,28.59,NW,306,2.7,6.7,83,0.00,,---,0.00,VWS V14.01,2013-05-05 06:35:00,
2013-05-05 01:40:00,43.5,38.7,28.59,NW,322,4.0,6.7,83,0.00,,---,0.00,VWS V14.01,2013-05-05 06:40:00,
2013-05-05 01:46:00,43.5,38.7,28.59,NW,310,0.0,6.7,83,0.00,,---,0.00,VWS V14.01,2013-05-05 06:46:00,
2013-05-05 01:51:00,43.5,38.7,28.59,NNW,330,2.7,6.7,83,0.00,,---,0.00,VWS V14.01,2013-05-05 06:51:00,
2013-05-05 01:56:00,43.5,38.7,28.59,NW,326,3.6,6.7,83,0.00,,---,0.00,VWS V14.01,2013-05-05 06:56:00,
2013-05-05 02:01:00,43.5,38.7,28.59,NW,321,3.1,3.6,83,0.00,,---,0.00,VWS V14.01,2013-05-05 07:01:00,
2013-05-05 02:06:00,43.5,38.7,28.59,NW,315,4.0,8.7,83,0.00,,---,0.00,VWS V14.01,2013-05-05 07:06:00,
2013-05-05 02:11:00,43.5,38.7,28.59,NW,320,3.1,8.7,83,0.00,,---,0.00,VWS V14.01,2013-05-05 07:11:00,
2013-05-05 02:16:00,43.5,38.7,28.59,NW,325,0.0,8.7,83,0.00,,---,0.00,VWS V14.01,2013-05-05 07:16:00,
2013-05-05 02:21:00,43.5,38.7,28.56,NNW,332,2.7,8.7,83,0.00,,---,0.00,VWS V14.01,2013-05-05 07:21:00,
2013-05-05 02:26:00,43.5,38.7,28.56,NNW,330,3.1,8.7,83,0.00,,---,0.00,VWS V14.01,2013-05-05 07:26:00,
2013-05-05 02:31:00,43.5,38.7,28.56,NW,320,0.0,8.7,83,0.00,,---,0.00,VWS V14.01,2013-05-05 07:31:00,
2013-05-05 02:37:00,43.5,39.0,28.56,NW,304,4.0,8.7,84,0.00,,---,0.00,VWS V14.01,2013-05-05 07:37:00,
2013-05-05 02:42:00,43.5,39.0,28.56,NW,304,3.1,8.7,84,0.00,,---,0.00,VWS V14.01,2013-05-05 07:42:00,
2013-05-05 02:47:00,43.5,39.0,28.56,WNW,297,4.9,8.7,84,0.00,,---,0.00,VWS V14.01,2013-05-05 07:47:00,
2013-05-05 02:52:00,43.5,39.0,28.56,NNW,328,2.2,8.7,84,0.00,,---,0.00,VWS V14.01,2013-05-05 07:52:00,
2013-05-05 02:57:00,43.5,39.0,28.56,NW,322,6.3,8.7,84,0.00,,---,0.00,VWS V14.01,2013-05-05 07:57:00,
2013-05-05 03:02:00,43.5,39.0,28.56,NW,318,0.0,3.6,84,0.00,,---,0.00,VWS V14.01,2013-05-05 08:02:00,
2013-05-05 03:07:00,43.5,39.0,28.56,NNW,338,4.0,6.3,84,0.00,,---,0.00,VWS V14.01,2013-05-05 08:07:00,
2013-05-05 03:12:00,43.5,39.0,28.56,NNW,329,4.0,6.3,84,0.00,,---,0.00,VWS V14.01,2013-05-05 08:12:00,
2013-05-05 03:17:00,43.3,38.8,28.56,NW,310,2.2,6.3,84,0.00,,---,0.00,VWS V14.01,2013-05-05 08:17:00,
2013-05-05 03:22:00,43.3,39.1,28.59,NW,317,3.6,6.3,85,0.00,,---,0.00,VWS V14.01,2013-05-05 08:22:00,
2013-05-05 03:28:00,43.3,39.1,28.59,NW,313,2.7,6.3,85,0.00,,---,0.00,VWS V14.01,2013-05-05 08:28:00,
2013-05-05 03:33:00,43.3,39.1,28.59,NNW,335,2.7,6.3,85,0.00,,---,0.00,VWS V14.01,2013-05-05 08:33:00,
2013-05-05 03:38:00,43.3,39.1,28.59,NW,310,3.1,6.3,85,0.00,,---,0.00,VWS V14.01,2013-05-05 08:38:00,
2013-05-05 03:43:00,43.3,39.1,28.59,NW,311,3.1,6.3,85,0.00,,---,0.00,VWS V14.01,2013-05-05 08:43:00,
2013-05-05 03:48:00,43.3,39.1,28.59,NW,312,3.6,6.3,85,0.00,,---,0.00,VWS V14.01,2013-05-05 08:48:00,
2013-05-05 03:53:00,43.3,39.1,28.59,NW,312,2.2,6.3,85,0.00,,---,0.00,VWS V14.01,2013-05-05 08:53:00,
2013-05-05 03:58:00,43.3,39.1,28.59,NNW,331,3.1,6.3,85,0.00,,---,0.00,VWS V14.01,2013-05-05 08:58:00,
2013-05-05 04:03:00,43.3,39.1,28.59,NW,312,3.1,5.4,85,0.00,,---,0.00,VWS V14.01,2013-05-05 09:03:00,
2013-05-05 04:08:00,43.3,39.1,28.59,NW,312,0.0,5.4,85,0.00,,---,0.00,VWS V14.01,2013-05-05 09:08:00,
2013-05-05 04:13:00,43.5,39.6,28.59,WNW,303,0.0,5.4,86,0.00,,---,0.00,VWS V14.01,2013-05-05 09:13:00,
2013-05-05 04:19:00,43.5,39.6,28.59,NW,312,3.1,5.8,86,0.00,,---,0.00,VWS V14.01,2013-05-05 09:19:00,
2013-05-05 04:24:00,43.3,39.4,28.59,NW,313,2.7,5.8,86,0.00,,---,0.00,VWS V14.01,2013-05-05 09:24:00,
2013-05-05 04:29:00,43.3,39.4,28.59,NW,315,4.9,6.3,86,0.00,,---,0.00,VWS V14.01,2013-05-05 09:29:00,
2013-05-05 04:34:00,43.3,39.4,28.59,NW,308,2.2,6.3,86,0.00,,---,0.00,VWS V14.01,2013-05-05 09:34:00,
2013-05-05 04:39:00,43.3,39.4,28.59,NW,323,4.0,6.3,86,0.00,,---,0.00,VWS V14.01,2013-05-05 09:39:00,
2013-05-05 04:44:00,43.3,39.4,28.59,NW,310,3.1,6.3,86,0.00,,---,0.00,VWS V14.01,2013-05-05 09:44:00,
2013-05-05 04:49:00,43.3,39.4,28.59,NW,320,4.9,6.3,86,0.00,,---,0.00,VWS V14.01,2013-05-05 09:49:00,
2013-05-05 04:54:00,43.3,39.4,28.59,NW,325,3.6,6.3,86,0.00,,---,0.00,VWS V14.01,2013-05-05 09:54:00,
2013-05-05 04:59:00,43.2,39.6,28.59,NW,313,2.7,6.3,87,0.00,,---,0.00,VWS V14.01,2013-05-05 09:59:00,
2013-05-05 05:04:00,43.2,39.6,28.59,NW,313,3.6,5.4,87,0.00,,---,0.00,VWS V14.01,2013-05-05 10:04:00,
2013-05-05 05:10:00,43.2,39.6,28.59,NW,326,3.1,6.3,87,0.00,,---,0.00,VWS V14.01,2013-05-05 10:10:00,
2013-05-05 05:15:00,43.2,39.6,28.59,NW,310,4.0,6.3,87,0.00,,---,0.00,VWS V14.01,2013-05-05 10:15:00,
2013-05-05 05:20:00,43.2,39.6,28.59,NW,324,2.7,6.3,87,0.00,,---,0.00,VWS V14.01,2013-05-05 10:20:00,
2013-05-05 05:25:00,43.2,39.6,28.59,NW,310,0.0,6.3,87,0.00,,---,0.00,VWS V14.01,2013-05-05 10:25:00,
2013-05-05 05:30:00,43.3,39.7,28.59,NW,316,3.6,6.3,87,0.00,,---,0.00,VWS V14.01,2013-05-05 10:30:00,
2013-05-05 05:35:00,43.3,39.4,28.59,West,259,2.2,6.3,86,0.00,,---,0.00,VWS V14.01,2013-05-05 10:35:00,
2013-05-05 05:40:00,43.3,39.4,28.59,NW,316,4.9,6.3,86,0.00,,---,0.00,VWS V14.01,2013-05-05 10:40:00,
2013-05-05 05:45:00,43.5,39.6,28.59,NW,318,3.6,8.1,86,0.00,,---,0.00,VWS V14.01,2013-05-05 10:45:00,
2013-05-05 05:50:00,43.5,39.3,28.59,NW,310,4.0,8.1,85,0.00,,---,0.00,VWS V14.01,2013-05-05 10:50:00,
2013-05-05 05:55:00,43.5,39.3,28.59,NW,310,4.5,8.1,85,0.00,,---,0.00,VWS V14.01,2013-05-05 10:55:00,
2013-05-05 06:01:00,43.5,39.0,28.59,NW,311,2.7,3.6,84,0.00,,---,0.00,VWS V14.01,2013-05-05 11:01:00,
2013-05-05 06:06:00,43.5,39.0,28.59,NW,308,5.8,6.3,84,0.00,,---,0.00,VWS V14.01,2013-05-05 11:06:00,
2013-05-05 06:11:00,43.5,39.0,28.59,NW,317,3.1,6.3,84,0.00,,---,0.00,VWS V14.01,2013-05-05 11:11:00,
2013-05-05 06:16:00,43.7,38.9,28.59,NW,315,3.1,6.3,83,0.00,,---,0.00,VWS V14.01,2013-05-05 11:16:00,
2013-05-05 06:21:00,43.7,38.9,28.59,NW,319,3.1,6.3,83,0.00,,---,0.00,VWS V14.01,2013-05-05 11:21:00,
2013-05-05 06:26:00,43.7,38.6,28.59,NW,309,2.7,6.3,82,0.00,,---,0.00,VWS V14.01,2013-05-05 11:26:00,
2013-05-05 06:31:00,43.7,38.6,28.59,NW,324,3.6,6.3,82,0.00,,---,0.00,VWS V14.01,2013-05-05 11:31:00,
2013-05-05 06:36:00,43.7,38.6,28.59,NW,310,4.0,6.3,82,0.00,,---,0.00,VWS V14.01,2013-05-05 11:36:00,
2013-05-05 06:41:00,43.9,38.8,28.59,NW,312,5.8,7.6,82,0.00,,---,0.00,VWS V14.01,2013-05-05 11:41:00,
2013-05-05 06:47:00,43.9,38.8,28.59,NW,306,2.7,7.6,82,0.00,,---,0.00,VWS V14.01,2013-05-05 11:47:00,
2013-05-05 06:52:00,43.9,38.8,28.61,NW,312,3.1,7.6,82,0.00,,---,0.00,VWS V14.01,2013-05-05 11:52:00,
2013-05-05 06:57:00,43.9,39.1,28.61,NW,313,2.7,7.6,83,0.00,,---,0.00,VWS V14.01,2013-05-05 11:57:00,
2013-05-05 07:02:00,43.9,39.1,28.61,NW,306,2.7,7.6,83,0.00,,---,0.00,VWS V14.01,2013-05-05 12:02:00,
2013-05-05 07:07:00,43.9,39.1,28.61,NW,314,5.4,7.6,83,0.00,,---,0.00,VWS V14.01,2013-05-05 12:07:00,
2013-05-05 07:12:00,43.9,39.1,28.61,NW,313,4.0,7.6,83,0.00,,---,0.00,VWS V14.01,2013-05-05 12:12:00,
2013-05-05 07:17:00,43.9,39.1,28.61,NW,316,5.4,7.6,83,0.00,,---,0.00,VWS V14.01,2013-05-05 12:17:00,
2013-05-05 07:22:00,43.9,39.4,28.61,NW,314,3.1,7.6,84,0.00,,---,0.00,VWS V14.01,2013-05-05 12:22:00,
2013-05-05 07:27:00,43.9,39.4,28.61,NW,312,4.0,8.1,84,0.00,,---,0.00,VWS V14.01,2013-05-05 12:27:00,
2013-05-05 07:33:00,43.7,39.5,28.61,WNW,303,5.8,8.1,85,0.00,,---,0.00,VWS V14.01,2013-05-05 12:33:00,
2013-05-05 07:38:00,43.7,39.5,28.61,NW,313,3.1,8.1,85,0.00,,---,0.00,VWS V14.01,2013-05-05 12:38:00,
2013-05-05 07:43:00,43.7,39.8,28.61,NW,317,4.0,8.1,86,0.00,,---,0.00,VWS V14.01,2013-05-05 12:43:00,
2013-05-05 07:48:00,43.7,39.8,28.61,NW,307,4.0,8.1,86,0.00,,---,0.00,VWS V14.01,2013-05-05 12:48:00,
2013-05-05 07:53:00,43.7,39.8,28.61,NW,317,4.0,8.1,86,0.00,,---,0.00,VWS V14.01,2013-05-05 12:53:00,
2013-05-05 07:58:00,43.7,39.8,28.61,NW,312,2.2,8.1,86,0.00,,---,0.00,VWS V14.01,2013-05-05 12:58:00,
2013-05-05 08:03:00,43.7,39.8,28.61,NW,314,3.6,4.0,86,0.00,,---,0.00,VWS V14.01,2013-05-05 13:03:00,
2013-05-05 08:08:00,43.7,40.1,28.61,WNW,302,4.0,5.4,87,0.00,,---,0.00,VWS V14.01,2013-05-05 13:08:00,
2013-05-05 08:13:00,43.7,40.1,28.61,NW,317,3.6,5.8,87,0.00,,---,0.00,VWS V14.01,2013-05-05 13:13:00,
2013-05-05 08:19:00,43.9,40.3,28.61,West,261,4.0,6.3,87,0.00,,---,0.00,VWS V14.01,2013-05-05 13:19:00,
2013-05-05 08:24:00,43.9,40.3,28.61,NW,315,5.8,6.3,87,0.00,,---,0.00,VWS V14.01,2013-05-05 13:24:00,
2013-05-05 08:29:00,44.1,40.7,28.61,NW,309,5.8,6.3,88,0.00,,---,0.00,VWS V14.01,2013-05-05 13:29:00,
2013-05-05 08:34:00,44.1,40.5,28.61,NW,311,3.6,6.3,87,0.00,,---,0.00,VWS V14.01,2013-05-05 13:34:00,
2013-05-05 08:39:00,44.1,40.5,28.61,NW,318,3.1,6.3,87,0.00,,---,0.00,VWS V14.01,2013-05-05 13:39:00,
2013-05-05 08:44:00,44.2,40.6,28.61,NW,308,2.7,6.3,87,0.00,,---,0.00,VWS V14.01,2013-05-05 13:44:00,
2013-05-05 08:49:00,44.4,40.5,28.61,NW,317,2.7,6.3,86,0.00,,---,0.00,VWS V14.01,2013-05-05 13:49:00,
2013-05-05 08:54:00,44.4,40.2,28.64,NW,315,6.3,6.3,85,0.00,,---,0.00,VWS V14.01,2013-05-05 13:54:00,
2013-05-05 08:59:00,44.6,40.1,28.64,NW,318,5.4,6.3,84,0.00,,---,0.00,VWS V14.01,2013-05-05 13:59:00,
2013-05-05 09:05:00,44.8,39.9,28.64,NW,312,4.0,8.3,83,0.00,,---,0.00,VWS V14.01,2013-05-05 14:05:00,
2013-05-05 09:10:00,45.0,39.8,28.64,NW,316,3.1,8.3,82,0.00,,---,0.00,VWS V14.01,2013-05-05 14:10:00,
2013-05-05 09:15:00,45.1,40.0,28.64,NW,319,4.0,8.3,82,0.00,,---,0.00,VWS V14.01,2013-05-05 14:15:00,
2013-05-05 09:20:00,45.3,40.2,28.64,NW,321,4.0,8.3,82,0.00,,---,0.00,VWS V14.01,2013-05-05 14:20:00,
2013-05-05 09:25:00,45.3,39.8,28.64,NW,315,5.4,8.3,81,0.00,,---,0.00,VWS V14.01,2013-05-05 14:25:00,
2013-05-05 09:30:00,45.5,40.0,28.64,NW,323,4.0,8.3,81,0.00,,---,0.00,VWS V14.01,2013-05-05 14:30:00,
2013-05-05 09:35:00,45.7,39.9,28.64,NW,314,3.6,8.3,80,0.00,,---,0.00,VWS V14.01,2013-05-05 14:35:00,
2013-05-05 09:40:00,45.9,39.7,28.64,NW,313,3.6,8.3,79,0.00,,---,0.00,VWS V14.01,2013-05-05 14:40:00,
2013-05-05 09:45:00,46.0,39.6,28.64,NNW,328,3.6,8.3,78,0.00,,---,0.00,VWS V14.01,2013-05-05 14:45:00,
2013-05-05 09:51:00,46.2,39.4,28.64,West,274,2.7,8.7,77,0.00,,---,0.00,VWS V14.01,2013-05-05 14:51:00,
2013-05-05 09:56:00,46.4,39.3,28.64,NW,320,5.8,8.7,76,0.00,,---,0.00,VWS V14.01,2013-05-05 14:56:00,
2013-05-05 10:01:00,46.6,39.4,28.64,NW,319,2.7,4.0,76,0.00,,---,0.00,VWS V14.01,2013-05-05 15:01:00,
2013-05-05 10:06:00,46.9,39.8,28.61,NW,306,5.4,5.4,76,0.00,,---,0.00,VWS V14.01,2013-05-05 15:06:00,
2013-05-05 10:11:00,47.3,39.8,28.61,WNW,299,2.2,5.8,75,0.00,,---,0.00,VWS V14.01,2013-05-05 15:11:00,
2013-05-05 10:16:00,47.5,39.6,28.61,NW,321,5.8,7.2,74,0.00,,---,0.00,VWS V14.01,2013-05-05 15:16:00,
2013-05-05 10:21:00,47.5,38.9,28.64,NW,313,3.6,7.2,72,0.00,,---,0.00,VWS V14.01,2013-05-05 15:21:00,
2013-05-05 10:26:00,47.5,39.3,28.64,NW,315,3.6,7.2,73,0.00,,---,0.00,VWS V14.01,2013-05-05 15:26:00,
2013-05-05 10:31:00,47.8,40.0,28.64,WNW,297,4.0,7.2,74,0.00,,---,0.00,VWS V14.01,2013-05-05 15:31:00,
2013-05-05 10:37:00,48.4,39.8,28.61,NW,320,5.4,7.2,72,0.00,,---,0.00,VWS V14.01,2013-05-05 15:37:00,
2013-05-05 10:42:00,48.9,39.9,28.61,North,6,4.9,7.2,71,0.00,,---,0.00,VWS V14.01,2013-05-05 15:42:00,
2013-05-05 10:47:00,49.3,39.5,28.61,NW,323,4.9,7.2,69,0.00,,---,0.00,VWS V14.01,2013-05-05 15:47:00,
2013-05-05 10:52:00,49.6,39.5,28.61,NNE,16,5.4,7.2,68,0.00,,---,0.00,VWS V14.01,2013-05-05 15:52:00,
2013-05-05 10:57:00,49.8,39.3,28.61,NNW,333,5.8,7.2,67,0.00,,---,0.00,VWS V14.01,2013-05-05 15:57:00,
2013-05-05 11:02:00,50.2,39.7,28.61,NW,323,4.0,4.0,67,0.00,,---,0.00,VWS V14.01,2013-05-05 16:02:00,
2013-05-05 11:07:00,50.2,39.3,28.61,NW,314,4.0,8.3,66,0.00,,---,0.00,VWS V14.01,2013-05-05 16:07:00,
2013-05-05 11:12:00,50.7,40.2,28.61,NW,324,5.8,8.3,67,0.00,,---,0.00,VWS V14.01,2013-05-05 16:12:00,
2013-05-05 11:17:00,51.3,41.1,28.61,NW,304,2.7,8.3,68,0.00,,---,0.00,VWS V14.01,2013-05-05 16:17:00,
2013-05-05 11:22:00,52.0,41.0,28.64,NW,315,4.9,8.3,66,0.00,,---,0.00,VWS V14.01,2013-05-05 16:22:00,
2013-05-05 11:28:00,52.7,40.9,28.64,NW,320,0.0,8.3,64,0.00,,---,0.00,VWS V14.01,2013-05-05 16:28:00,
2013-05-05 11:33:00,53.1,40.8,28.64,NW,313,3.1,8.3,63,0.00,,---,0.00,VWS V14.01,2013-05-05 16:33:00,
2013-05-05 11:38:00,53.2,40.2,28.61,NW,318,4.9,8.3,61,0.00,,---,0.00,VWS V14.01,2013-05-05 16:38:00,
2013-05-05 11:43:00,53.4,40.7,28.61,NW,324,5.8,8.3,62,0.00,,---,0.00,VWS V14.01,2013-05-05 16:43:00,
2013-05-05 11:48:00,53.4,40.3,28.61,North,349,4.0,8.3,61,0.00,,---,0.00,VWS V14.01,2013-05-05 16:48:00,
2013-05-05 11:53:00,53.4,40.3,28.61,NNW,342,2.7,8.3,61,0.00,,---,0.00,VWS V14.01,2013-05-05 16:53:00,
2013-05-05 11:58:00,53.8,41.1,28.61,WNW,303,4.0,8.3,62,0.00,,---,0.00,VWS V14.01,2013-05-05 16:58:00,
2013-05-05 12:03:00,54.3,41.6,28.61,NW,311,6.7,7.6,62,0.00,,---,0.00,VWS V14.01,2013-05-05 17:03:00,
2013-05-05 12:08:00,54.7,41.1,28.61,NW,310,2.7,8.3,60,0.00,,---,0.00,VWS V14.01,2013-05-05 17:08:00,
2013-05-05 12:14:00,55.2,42.0,28.61,NNW,330,5.8,8.3,61,0.00,,---,0.00,VWS V14.01,2013-05-05 17:14:00,
2013-05-05 12:19:00,55.6,41.5,28.61,NW,307,4.0,8.3,59,0.00,,---,0.00,VWS V14.01,2013-05-05 17:19:00,
2013-05-05 12:24:00,55.9,41.8,28.61,NNW,329,3.1,8.3,59,0.00,,---,0.00,VWS V14.01,2013-05-05 17:24:00,
2013-05-05 12:29:00,56.7,42.1,28.61,NW,315,4.0,8.3,58,0.00,,---,0.00,VWS V14.01,2013-05-05 17:29:00,
2013-05-05 12:34:00,56.8,40.9,28.61,NW,320,5.8,8.3,55,0.00,,---,0.00,VWS V14.01,2013-05-05 17:34:00,
2013-05-05 12:39:00,57.0,41.0,28.61,NW,313,4.0,8.3,55,0.00,,---,0.00,VWS V14.01,2013-05-05 17:39:00,
2013-05-05 12:44:00,57.6,42.5,28.61,NW,309,5.4,8.3,57,0.00,,---,0.00,VWS V14.01,2013-05-05 17:44:00,
2013-05-05 12:49:00,57.9,41.4,28.61,NW,312,3.1,8.3,54,0.00,,---,0.00,VWS V14.01,2013-05-05 17:49:00,
2013-05-05 12:54:00,58.1,42.5,28.61,NW,320,3.1,8.3,56,0.00,,---,0.00,VWS V14.01,2013-05-05 17:54:00,
2013-05-05 13:00:00,58.5,42.4,28.61,NW,326,4.9,8.3,55,0.00,,---,0.00,VWS V14.01,2013-05-05 18:00:00,
2013-05-05 13:05:00,58.6,42.1,28.61,NW,320,5.4,8.1,54,0.00,,---,0.00,VWS V14.01,2013-05-05 18:05:00,
2013-05-05 13:10:00,58.6,41.6,28.61,NW,309,3.6,8.1,53,0.00,,---,0.00,VWS V14.01,2013-05-05 18:10:00,
2013-05-05 13:15:00,58.5,41.4,28.61,West,273,3.6,8.1,53,0.00,,---,0.00,VWS V14.01,2013-05-05 18:15:00,
2013-05-05 13:20:00,58.5,41.4,28.61,NW,304,2.7,8.1,53,0.00,,---,0.00,VWS V14.01,2013-05-05 18:20:00,
2013-05-05 13:25:00,58.8,41.7,28.61,NW,309,3.6,8.1,53,0.00,,---,0.00,VWS V14.01,2013-05-05 18:25:00,
2013-05-05 13:30:00,59.2,42.1,28.61,NNW,328,3.1,8.1,53,0.00,,---,0.00,VWS V14.01,2013-05-05 18:30:00,
2013-05-05 13:35:00,59.4,41.8,28.59,NNW,334,5.8,8.1,52,0.00,,---,0.00,VWS V14.01,2013-05-05 18:35:00,
2013-05-05 13:40:00,59.4,41.2,28.59,NW,311,2.7,8.1,51,0.00,,---,0.00,VWS V14.01,2013-05-05 18:40:00,
2013-05-05 13:45:00,59.2,41.6,28.59,NNW,338,5.4,8.1,52,0.00,,---,0.00,VWS V14.01,2013-05-05 18:45:00,
2013-05-05 13:51:00,59.4,42.7,28.59,North,353,6.3,8.1,54,0.00,,---,0.00,VWS V14.01,2013-05-05 18:51:00,
2013-05-05 13:56:00,59.5,42.4,28.59,West,280,5.4,8.1,53,0.00,,---,0.00,VWS V14.01,2013-05-05 18:56:00,
2013-05-05 14:01:00,59.9,43.2,28.59,WSW,241,5.8,6.3,54,0.00,,---,0.00,VWS V14.01,2013-05-05 19:01:00,
2013-05-05 14:06:00,59.9,41.8,28.59,NW,315,2.7,10.1,51,0.00,,---,0.00,VWS V14.01,2013-05-05 19:06:00,
2013-05-05 14:11:00,59.9,42.2,28.59,NW,313,4.9,10.1,52,0.00,,---,0.00,VWS V14.01,2013-05-05 19:11:00,
2013-05-05 14:16:00,60.4,44.2,28.59,NNW,329,3.1,10.1,55,0.00,,---,0.00,VWS V14.01,2013-05-05 19:16:00,
2013-05-05 14:21:00,60.8,42.6,28.59,NW,319,3.1,10.1,51,0.00,,---,0.00,VWS V14.01,2013-05-05 19:21:00,
2013-05-05 14:26:00,61.0,42.2,28.59,North,357,5.8,10.1,50,0.00,,---,0.00,VWS V14.01,2013-05-05 19:26:00,
2013-05-05 14:31:00,61.3,43.1,28.59,NNW,328,2.7,10.1,51,0.00,,---,0.00,VWS V14.01,2013-05-05 19:31:00,
2013-05-05 14:37:00,61.3,42.6,28.59,NNW,335,0.0,10.1,50,0.00,,---,0.00,VWS V14.01,2013-05-05 19:37:00,
2013-05-05 14:42:00,61.2,42.9,28.59,NW,323,3.6,10.1,51,0.00,,---,0.00,VWS V14.01,2013-05-05 19:42:00,
2013-05-05 14:47:00,61.3,43.1,28.59,NW,324,3.1,10.1,51,0.00,,---,0.00,VWS V14.01,2013-05-05 19:47:00,
2013-05-05 14:52:00,61.3,42.6,28.59,NW,316,2.7,10.1,50,0.00,,---,0.00,VWS V14.01,2013-05-05 19:52:00,
2013-05-05 14:57:00,61.3,43.1,28.59,NNW,342,4.9,10.1,51,0.00,,---,0.00,VWS V14.01,2013-05-05 19:57:00,
2013-05-05 15:02:00,61.3,43.1,28.59,NW,321,3.6,5.8,51,0.00,,---,0.00,VWS V14.01,2013-05-05 20:02:00,
2013-05-05 15:07:00,61.5,43.8,28.59,NNW,341,3.6,5.8,52,0.00,,---,0.00,VWS V14.01,2013-05-05 20:07:00,
2013-05-05 15:12:00,62.2,43.9,28.59,NW,315,5.4,6.3,51,0.00,,---,0.00,VWS V14.01,2013-05-05 20:12:00,
2013-05-05 15:17:00,63.0,44.0,28.59,NNW,345,3.6,6.3,50,0.00,,---,0.00,VWS V14.01,2013-05-05 20:17:00,
2013-05-05 15:22:00,63.0,43.5,28.56,NNW,330,3.6,6.3,49,0.00,,---,0.00,VWS V14.01,2013-05-05 20:22:00,
2013-05-05 15:28:00,62.6,43.2,28.56,NW,313,4.0,6.3,49,0.00,,---,0.00,VWS V14.01,2013-05-05 20:28:00,
2013-05-05 15:33:00,62.6,44.2,28.56,NNW,337,5.8,6.3,51,0.00,,---,0.00,VWS V14.01,2013-05-05 20:33:00,
2013-05-05 15:38:00,63.0,44.0,28.56,North,357,2.7,6.3,50,0.00,,---,0.00,VWS V14.01,2013-05-05 20:38:00,
2013-05-05 15:43:00,63.0,43.5,28.56,NW,316,4.9,6.3,49,0.00,,---,0.00,VWS V14.01,2013-05-05 20:43:00,
2013-05-05 15:48:00,63.0,43.5,28.56,NW,318,0.0,7.6,49,0.00,,---,0.00,VWS V14.01,2013-05-05 20:48:00,
2013-05-05 15:53:00,63.3,44.4,28.56,NW,318,4.9,8.3,50,0.00,,---,0.00,VWS V14.01,2013-05-05 20:53:00,
2013-05-05 15:58:00,63.5,43.5,28.56,NNW,336,3.6,8.3,48,0.00,,---,0.00,VWS V14.01,2013-05-05 20:58:00,
2013-05-05 16:03:00,63.5,44.0,28.56,NW,311,4.0,6.3,49,0.00,,---,0.00,VWS V14.01,2013-05-05 21:03:00,
2013-05-05 16:08:00,63.5,44.0,28.56,NW,306,3.1,6.3,49,0.00,,---,0.00,VWS V14.01,2013-05-05 21:08:00,
2013-05-05 16:14:00,63.3,43.3,28.56,WNW,289,3.1,6.3,48,0.00,,---,0.00,VWS V14.01,2013-05-05 21:14:00,
2013-05-05 16:19:00,63.3,43.3,28.56,NW,326,2.7,6.3,48,0.00,,---,0.00,VWS V14.01,2013-05-05 21:19:00,
2013-05-05 16:24:00,63.5,44.0,28.56,NW,313,2.2,6.3,49,0.00,,---,0.00,VWS V14.01,2013-05-05 21:24:00,
2013-05-05 16:29:00,64.2,44.7,28.56,North,6,2.2,6.3,49,0.00,,---,0.00,VWS V14.01,2013-05-05 21:29:00,
2013-05-05 16:34:00,64.6,44.5,28.56,NNW,339,4.0,6.3,48,0.00,,---,0.00,VWS V14.01,2013-05-05 21:34:00,
2013-05-05 16:39:00,64.4,42.6,28.56,West,277,2.7,6.3,45,0.00,,---,0.00,VWS V14.01,2013-05-05 21:39:00,
2013-05-05 16:44:00,64.2,43.6,28.56,NW,320,5.4,6.3,47,0.00,,---,0.00,VWS V14.01,2013-05-05 21:44:00,
2013-05-05 16:49:00,64.2,44.1,28.56,North,353,5.8,8.3,48,0.00,,---,0.00,VWS V14.01,2013-05-05 21:49:00,
2013-05-05 16:54:00,64.4,43.8,28.53,NW,317,3.6,8.3,47,0.00,,---,0.00,VWS V14.01,2013-05-05 21:54:00,
2013-05-05 17:00:00,64.4,43.8,28.53,NW,309,5.8,8.3,47,0.00,,---,0.00,VWS V14.01,2013-05-05 22:00:00,
2013-05-05 17:05:00,64.4,43.8,28.53,NW,313,2.7,5.8,47,0.00,,---,0.00,VWS V14.01,2013-05-05 22:05:00,
2013-05-05 17:10:00,64.2,43.6,28.53,North,353,3.6,5.8,47,0.00,,---,0.00,VWS V14.01,2013-05-05 22:10:00,
2013-05-05 17:15:00,64.4,44.3,28.53,North,353,5.8,6.3,48,0.00,,---,0.00,VWS V14.01,2013-05-05 22:15:00,
2013-05-05 17:20:00,64.6,43.9,28.53,NW,315,3.1,6.3,47,0.00,,---,0.00,VWS V14.01,2013-05-05 22:20:00,
2013-05-05 17:25:00,64.6,43.9,28.53,NNW,342,2.7,6.3,47,0.00,,---,0.00,VWS V14.01,2013-05-05 22:25:00,
2013-05-05 17:30:00,64.4,43.2,28.53,North,4,2.7,6.3,46,0.00,,---,0.00,VWS V14.01,2013-05-05 22:30:00,
2013-05-05 17:35:00,64.2,43.6,28.53,NNW,345,2.2,6.3,47,0.00,,---,0.00,VWS V14.01,2013-05-05 22:35:00,
2013-05-05 17:41:00,64.2,44.1,28.53,North,357,3.6,6.3,48,0.00,,---,0.00,VWS V14.01,2013-05-05 22:41:00,
2013-05-05 17:46:00,64.4,43.8,28.53,North,1,2.7,6.3,47,0.00,,---,0.00,VWS V14.01,2013-05-05 22:46:00,
2013-05-05 17:51:00,64.4,43.2,28.53,NNE,24,4.0,6.3,46,0.00,,---,0.00,VWS V14.01,2013-05-05 22:51:00,
2013-05-05 17:56:00,64.4,43.2,28.53,NW,308,0.0,6.3,46,0.00,,---,0.00,VWS V14.01,2013-05-05 22:56:00,
2013-05-05 18:01:00,64.6,43.4,28.53,WNW,297,2.7,2.7,46,0.00,,---,0.00,VWS V14.01,2013-05-05 23:01:00,
2013-05-05 18:06:00,64.9,44.2,28.53,NNW,330,3.1,8.1,47,0.00,,---,0.00,VWS V14.01,2013-05-05 23:06:00,
2013-05-05 18:11:00,65.1,43.3,28.53,NW,316,3.1,8.1,45,0.00,,---,0.00,VWS V14.01,2013-05-05 23:11:00,
2013-05-05 18:16:00,64.9,43.1,28.53,NW,312,2.7,8.1,45,0.00,,---,0.00,VWS V14.01,2013-05-05 23:16:00,
2013-05-05 18:21:00,64.9,43.7,28.53,NNE,22,4.9,8.1,46,0.00,,---,0.00,VWS V14.01,2013-05-05 23:21:00,
2013-05-05 18:26:00,64.9,44.2,28.53,NNE,16,2.7,8.3,47,0.00,,---,0.00,VWS V14.01,2013-05-05 23:26:00,
2013-05-05 18:32:00,64.4,43.8,28.53,NNE,24,3.6,8.3,47,0.00,,---,0.00,VWS V14.01,2013-05-05 23:32:00,
2013-05-05 18:37:00,63.9,43.8,28.53,NNE,19,4.0,8.3,48,0.00,,---,0.00,VWS V14.01,2013-05-05 23:37:00,
2013-05-05 18:42:00,63.3,43.8,28.53,North,1,5.8,8.3,49,0.00,,---,0.00,VWS V14.01,2013-05-05 23:42:00,
2013-05-05 18:47:00,62.8,43.9,28.53,North,11,4.9,8.3,50,0.00,,---,0.00,VWS V14.01,2013-05-05 23:47:00,
2013-05-05 18:52:00,62.6,44.2,28.53,East,85,3.1,8.3,51,0.00,,---,0.00,VWS V14.01,2013-05-05 23:52:00,
2013-05-05 18:57:00,62.4,44.1,28.53,NNE,13,5.4,8.3,51,0.00,,---,0.00,VWS V14.01,2013-05-05 23:57:00,
2013-05-05 19:02:00,62.2,43.9,28.53,NNE,24,2.7,5.8,51,0.00,,---,0.00,VWS V14.01,2013-05-06 00:02:00,
2013-05-05 19:07:00,62.2,43.9,28.53,NNE,23,3.1,6.3,51,0.00,,---,0.00,VWS V14.01,2013-05-06 00:07:00,
2013-05-05 19:12:00,62.2,43.9,28.53,NNE,23,3.1,6.3,51,0.00,,---,0.00,VWS V14.01,2013-05-06 00:12:00,
2013-05-05 19:17:00,62.1,44.2,28.53,NNE,19,0.0,6.3,52,0.00,,---,0.00,VWS V14.01,2013-05-06 00:17:00,
2013-05-05 19:23:00,61.9,44.1,28.53,North,357,0.0,6.3,52,0.00,,---,0.00,VWS V14.01,2013-05-06 00:23:00,
2013-05-05 19:28:00,61.7,43.9,28.53,North,6,2.7,6.3,52,0.00,,---,0.00,VWS V14.01,2013-05-06 00:28:00,
2013-05-05 19:33:00,61.3,43.6,28.53,NNE,26,4.0,6.3,52,0.00,,---,0.00,VWS V14.01,2013-05-06 00:33:00,
2013-05-05 19:38:00,61.2,43.9,28.53,NNE,12,3.6,6.3,53,0.00,,---,0.00,VWS V14.01,2013-05-06 00:38:00,
2013-05-05 19:43:00,61.0,43.8,28.53,NNW,343,4.9,6.3,53,0.00,,---,0.00,VWS V14.01,2013-05-06 00:43:00,
2013-05-05 19:48:00,60.8,44.5,28.53,NNE,31,4.0,8.3,55,0.00,,---,0.00,VWS V14.01,2013-05-06 00:48:00,
2013-05-05 19:53:00,60.4,44.7,28.53,NNE,14,4.0,8.3,56,0.00,,---,0.00,VWS V14.01,2013-05-06 00:53:00,
2013-05-05 19:58:00,59.9,44.7,28.53,NNE,26,4.0,8.3,57,0.00,,---,0.00,VWS V14.01,2013-05-06 00:58:00,
2013-05-05 20:03:00,59.4,45.0,28.53,North,9,3.1,6.3,59,0.00,,---,0.00,VWS V14.01,2013-05-06 01:03:00,
2013-05-05 20:09:00,58.8,45.0,28.53,NNE,27,3.1,6.3,60,0.00,,---,0.00,VWS V14.01,2013-05-06 01:09:00,
2013-05-05 20:14:00,58.5,45.1,28.53,NNE,18,2.7,6.3,61,0.00,,---,0.00,VWS V14.01,2013-05-06 01:14:00,
2013-05-05 20:19:00,58.1,45.2,28.53,NNE,24,0.0,6.3,62,0.00,,---,0.00,VWS V14.01,2013-05-06 01:19:00,
2013-05-05 20:24:00,57.7,44.8,28.53,NNE,24,0.0,6.3,62,0.00,,---,0.00,VWS V14.01,2013-05-06 01:24:00,
2013-05-05 20:29:00,57.4,45.3,28.53,NNE,25,2.2,6.3,64,0.00,,---,0.00,VWS V14.01,2013-05-06 01:29:00,
2013-05-05 20:34:00,57.0,45.4,28.53,NNE,17,3.6,7.6,65,0.00,,---,0.00,VWS V14.01,2013-05-06 01:34:00,
2013-05-05 20:39:00,56.8,45.2,28.53,NE,36,3.6,7.6,65,0.00,,---,0.00,VWS V14.01,2013-05-06 01:39:00,
2013-05-05 20:44:00,56.5,45.3,28.53,NNE,13,2.2,7.6,66,0.00,,---,0.00,VWS V14.01,2013-05-06 01:44:00,
2013-05-05 20:49:00,55.9,44.8,28.53,NE,54,0.0,7.6,66,0.00,,---,0.00,VWS V14.01,2013-05-06 01:49:00,
2013-05-05 20:55:00,55.8,44.6,28.53,NNE,21,3.1,7.6,66,0.00,,---,0.00,VWS V14.01,2013-05-06 01:55:00,
2013-05-05 21:00:00,55.4,44.6,28.53,NNE,22,0.0,7.6,67,0.00,,---,0.00,VWS V14.01,2013-05-06 02:00:00,
2013-05-05 21:05:00,55.0,45.1,28.53,NNE,21,0.0,0.0,69,0.00,,---,0.00,VWS V14.01,2013-05-06 02:05:00,
2013-05-05 21:10:00,54.7,44.7,28.56,NNE,21,0.0,0.0,69,0.00,,---,0.00,VWS V14.01,2013-05-06 02:10:00,
2013-05-05 21:15:00,54.5,44.5,28.56,NNE,21,0.0,0.0,69,0.00,,---,0.00,VWS V14.01,2013-05-06 02:15:00,
2013-05-05 21:20:00,54.3,44.4,28.56,NNE,21,0.0,0.0,69,0.00,,---,0.00,VWS V14.01,2013-05-06 02:20:00,
2013-05-05 21:25:00,54.0,44.4,28.56,NNE,21,0.0,0.0,70,0.00,,---,0.00,VWS V14.01,2013-05-06 02:25:00,
2013-05-05 21:30:00,53.8,44.2,28.56,NNE,21,0.0,0.0,70,0.00,,---,0.00,VWS V14.01,2013-05-06 02:30:00,
2013-05-05 21:35:00,53.6,44.4,28.56,NNE,21,0.0,0.0,71,0.00,,---,0.00,VWS V14.01,2013-05-06 02:35:00,
2013-05-05 21:41:00,53.4,44.3,28.56,NNE,21,0.0,0.0,71,0.00,,---,0.00,VWS V14.01,2013-05-06 02:41:00,
2013-05-05 21:46:00,53.2,44.1,28.56,NNE,21,0.0,0.0,71,0.00,,---,0.00,VWS V14.01,2013-05-06 02:46:00,
2013-05-05 21:51:00,53.1,44.3,28.56,NNE,21,0.0,0.0,72,0.00,,---,0.00,VWS V14.01,2013-05-06 02:51:00,
2013-05-05 21:56:00,52.9,44.1,28.56,NNE,21,0.0,0.0,72,0.00,,---,0.00,VWS V14.01,2013-05-06 02:56:00,
2013-05-05 22:01:00,52.5,43.8,28.56,NNE,21,0.0,0.0,72,0.00,,---,0.00,VWS V14.01,2013-05-06 03:01:00,
2013-05-05 22:06:00,52.2,43.4,28.56,NNE,21,0.0,0.0,72,0.00,,---,0.00,VWS V14.01,2013-05-06 03:06:00,
2013-05-05 22:11:00,52.0,43.2,28.56,NNE,21,0.0,0.0,72,0.00,,---,0.00,VWS V14.01,2013-05-06 03:11:00,
2013-05-05 22:16:00,51.6,43.3,28.56,NNE,21,0.0,0.0,73,0.00,,---,0.00,VWS V14.01,2013-05-06 03:16:00,
2013-05-05 22:21:00,51.4,43.1,28.56,NNE,21,0.0,0.0,73,0.00,,---,0.00,VWS V14.01,2013-05-06 03:21:00,
2013-05-05 22:26:00,51.1,42.7,28.56,NNE,21,0.0,0.0,73,0.00,,---,0.00,VWS V14.01,2013-05-06 03:26:00,
2013-05-05 22:32:00,50.9,42.6,28.56,NNE,21,0.0,0.0,73,0.00,,---,0.00,VWS V14.01,2013-05-06 03:32:00,
2013-05-05 22:37:00,50.5,42.6,28.59,NNE,21,0.0,0.0,74,0.00,,---,0.00,VWS V14.01,2013-05-06 03:37:00,
2013-05-05 22:42:00,50.4,42.4,28.59,NNE,21,0.0,0.0,74,0.00,,---,0.00,VWS V14.01,2013-05-06 03:42:00,
2013-05-05 22:47:00,50.2,42.2,28.59,NNE,21,0.0,0.0,74,0.00,,---,0.00,VWS V14.01,2013-05-06 03:47:00,
2013-05-05 22:52:00,50.0,42.0,28.59,NNE,21,0.0,0.0,74,0.00,,---,0.00,VWS V14.01,2013-05-06 03:52:00,
2013-05-05 22:57:00,49.8,42.2,28.59,NNE,21,0.0,0.0,75,0.00,,---,0.00,VWS V14.01,2013-05-06 03:57:00,
2013-05-05 23:01:00,49.6,42.0,28.59,NNE,21,0.0,0.0,75,0.00,,---,0.00,VWS V14.01,2013-05-06 04:01:00,
2013-05-05 23:02:00,49.6,42.0,28.59,NNE,21,0.0,0.0,75,0.00,,---,0.00,VWS V14.01,2013-05-06 04:02:00,
2013-05-05 23:07:00,49.3,42.0,28.59,NNE,21,0.0,0.0,76,0.00,,---,0.00,VWS V14.01,2013-05-06 04:07:00,
2013-05-05 23:12:00,49.1,41.9,28.59,NNE,21,0.0,0.0,76,0.00,,---,0.00,VWS V14.01,2013-05-06 04:12:00,
2013-05-05 23:18:00,48.9,41.7,28.59,NNE,21,0.0,0.0,76,0.00,,---,0.00,VWS V14.01,2013-05-06 04:18:00,
2013-05-05 23:23:00,48.7,41.5,28.59,NNE,21,0.0,0.0,76,0.00,,---,0.00,VWS V14.01,2013-05-06 04:23:00,
2013-05-05 23:28:00,48.6,41.3,28.59,NNE,21,0.0,0.0,76,0.00,,---,0.00,VWS V14.01,2013-05-06 04:28:00,
2013-05-05 23:33:00,48.4,41.5,28.59,NNE,21,0.0,0.0,77,0.00,,---,0.00,VWS V14.01,2013-05-06 04:33:00,
2013-05-05 23:38:00,48.4,41.5,28.59,NNE,21,0.0,0.0,77,0.00,,---,0.00,VWS V14.01,2013-05-06 04:38:00,
2013-05-05 23:43:00,48.2,41.7,28.59,NNE,21,0.0,0.0,78,0.00,,---,0.00,VWS V14.01,2013-05-06 04:43:00,
2013-05-05 23:48:00,48.0,41.5,28.59,NNE,21,0.0,0.0,78,0.00,,---,0.00,VWS V14.01,2013-05-06 04:48:00,
2013-05-05 23:53:00,47.8,41.7,28.59,NNE,21,0.0,0.0,79,0.00,,---,0.00,VWS V14.01,2013-05-06 04:53:00,
2013-05-05 23:58:00,47.7,41.5,28.59,NNE,21,0.0,0.0,79,0.00,,---,0.00,VWS V14.01,2013-05-06 04:58:00,